Location: Heiligenberg
(48.5381°N, 7.3897°E)
Time: 20:31:39
(UTC+00:00)

SME Rocket - Pass Details

Date: 26 May 2022
Orbit: 551 x 2650 km, 99.9° (Epoch: 03 July)

Event Time Altitude Azimuth Distance (km) Brightness Sun altitude
Exits shadow 01:24:32 28° 213° (SSW) 1,164 3.9 -15.6°
Maximum altitude 01:26:10 41° 262° (W) 958 3.7 -15.5°
Drops below altitude 10° 01:30:56 10° 333° (NNW) 2,438 6.6 -15.1°
Sets 01:33:52 0° 340° (NNW) 3,649 7.6 -14.9°
